Weather History for Grand Marais Airport, MN

Change the Weather History Date:

Friday, June 21, 2013

  Actual Average Record
Temperature  
Mean Temperature 60 °F -  
Max Temperature 66 °F 67 °F 77 °F (2005)
Min Temperature 55 °F 48 °F 41 °F (2003)
Degree Days  
Heating Degree Days 4    
Growing Degree Days 10 (Base 50)    
Moisture  
Dew Point 55 °F    
Average Humidity 88    
Maximum Humidity 94    
Minimum Humidity 77    
Precipitation  
Precipitation 0.26 in - - ()
Sea Level Pressure  
Sea Level Pressure 30.04 in    
Wind  
Wind Speed 8 mph (NNE)    
Max Wind Speed 14 mph    
Max Gust Speed 18 mph    
Visibility 6 miles    
Events Fog , Rain , Thunderstorm    
Averages and records for this station are not official NWS values.
T = Trace of Precipitation, MM = Missing Value Source: NWS Daily Summary

Daily Weather History Graph

Daily Weather History Graph

Search for Another Location

Airport:

Trip Planner

Search our weather history database for the weather conditions in past years. The results will help you decide how hot, cold, wet, or windy it might be!

Date:

Astronomy

Jun. 21, 2013 Rise Set
Actual Time 5:02 AM CDT 9:04 PM CDT
Civil Twilight 4:21 AM CDT 9:45 PM CDT
Nautical Twilight 3:24 AM CDT 10:42 PM CDT
Astronomical Twilight 1:48 AM CDT 12:18 AM CDT
Moon 7:09 PM CDT (6/21) 3:25 AM CDT (6/21)
Length of Visible Light 17h 23m
Length of Day
16h 01m
Waxing Gibbous, 95% of the Moon is Illuminated
Jun 21
Waxing Gibbous
Jun 23
Full
Jun 29
Last Quarter
Jul 8
New
Jul 15
First Quarter

Hourly Weather History & Observations

Time (CDT) Temp. Dew Point Humidity Pressure Visibility Wind Dir Wind Speed Gust Speed Precip Events Conditions
12:13 AM 57.2 °F 55.4 °F 94% 30.10 in 0.5 mi ENE 6.9 mph - N/A Fog Fog
12:34 AM 57.2 °F 55.4 °F 94% 30.10 in 1.2 mi ENE 6.9 mph - N/A   Overcast
12:53 AM 57.2 °F 55.4 °F 94% 30.09 in 3.0 mi ENE 8.1 mph - N/A   Overcast
1:14 AM 57.2 °F 55.4 °F 94% 30.09 in 5.0 mi ENE 8.1 mph - N/A   Overcast
1:33 AM 57.2 °F 55.4 °F 94% 30.08 in 7.0 mi ENE 9.2 mph - N/A   Overcast
1:53 AM 59.0 °F 55.4 °F 88% 30.06 in 2.5 mi ENE 9.2 mph - N/A   Overcast
2:14 AM 59.0 °F 55.4 °F 88% 30.07 in 1.2 mi East 8.1 mph - N/A   Overcast
2:34 AM 59.0 °F 55.4 °F 88% 30.06 in 10.0 mi East 6.9 mph - N/A   Overcast
2:53 AM 59.0 °F 55.4 °F 88% 30.06 in 7.0 mi East 8.1 mph - N/A   Overcast
3:13 AM 59.0 °F 55.4 °F 88% 30.06 in 7.0 mi ENE 8.1 mph - N/A   Overcast
3:33 AM 57.2 °F 55.4 °F 94% 30.07 in 7.0 mi ENE 8.1 mph - N/A   Overcast
3:53 AM 57.2 °F 55.4 °F 94% 30.05 in 7.0 mi ENE 9.2 mph - N/A   Overcast
4:14 AM 59.0 °F 55.4 °F 88% 30.04 in 7.0 mi ENE 9.2 mph - N/A   Overcast
4:33 AM 59.0 °F 55.4 °F 88% 30.03 in 7.0 mi ENE 10.4 mph - N/A   Overcast
4:53 AM 59.0 °F 55.4 °F 88% 30.02 in 10.0 mi NE 9.2 mph - N/A   Overcast
5:14 AM 59.0 °F 55.4 °F 88% 30.02 in 10.0 mi ENE 10.4 mph - N/A   Overcast
5:33 AM 59.0 °F 55.4 °F 88% 30.01 in 10.0 mi NE 10.4 mph - N/A   Overcast
5:53 AM 57.2 °F 55.4 °F 94% 30.01 in 5.0 mi ENE 9.2 mph - N/A   Overcast
6:14 AM 57.2 °F 53.6 °F 88% 30.02 in 1.0 mi East 10.4 mph 16.1 mph 0.01 in Rain Rain
6:34 AM 57.2 °F 55.4 °F 94% 30.01 in 0.2 mi East 10.4 mph 16.1 mph 0.02 in Rain Light Rain
6:54 AM 57.2 °F 55.4 °F 94% 30.02 in 0.2 mi East 10.4 mph - 0.02 in Rain , Thunderstorm Light Thunderstorms and Rain
7:14 AM 57.2 °F 55.4 °F 94% 30.03 in 0.2 mi East 8.1 mph - 0.01 in Rain Light Rain
7:33 AM 57.2 °F 53.6 °F 88% 30.03 in 0.8 mi ENE 6.9 mph - 0.05 in Rain Rain
7:53 AM 57.2 °F 53.6 °F 88% 30.02 in 2.5 mi ENE 6.9 mph - 0.09 in Rain Rain
8:14 AM 57.2 °F 53.6 °F 88% 30.00 in 5.0 mi NE 9.2 mph - 0.03 in Rain Rain
8:33 AM 57.2 °F 53.6 °F 88% 29.99 in 5.0 mi NE 9.2 mph - 0.04 in Rain Light Rain
8:54 AM 57.2 °F 55.4 °F 94% 29.98 in 4.0 mi ENE 10.4 mph - 0.05 in Rain Light Rain
9:14 AM 57.2 °F 53.6 °F 88% 29.98 in 2.5 mi NE 10.4 mph - 0.01 in Rain Light Rain
9:34 AM 57.2 °F 53.6 °F 88% 29.96 in 2.0 mi ENE 11.5 mph - 0.01 in   Drizzle
9:53 AM 57.2 °F 55.4 °F 94% 29.96 in 1.2 mi ENE 13.8 mph 18.4 mph 0.01 in   Light Drizzle
10:13 AM 57.2 °F 55.4 °F 94% 29.96 in 1.2 mi ENE 12.7 mph 17.3 mph N/A   Light Drizzle
10:34 AM 57.2 °F 55.4 °F 94% 29.98 in 0.8 mi NNE 9.2 mph - N/A Rain Light Rain
10:53 AM 57.2 °F 55.4 °F 94% 30.03 in 2.5 mi NNW 6.9 mph - 0.01 in Rain Light Rain
11:13 AM 57.2 °F 55.4 °F 94% 30.02 in 3.0 mi NNE 5.8 mph - 0.06 in Rain Rain
11:33 AM 59.0 °F 55.4 °F 88% 30.01 in 4.0 mi NNE 8.1 mph - 0.07 in Rain Light Rain
11:54 AM 60.8 °F 55.4 °F 82% 30.00 in 7.0 mi NNE 10.4 mph - 0.07 in   Overcast
12:13 PM 60.8 °F 55.4 °F 82% 30.01 in 10.0 mi North 9.2 mph - N/A Rain Light Rain
12:34 PM 62.6 °F 57.2 °F 82% 30.01 in 7.0 mi North 8.1 mph - N/A Rain Light Rain
12:54 PM 62.6 °F 57.2 °F 82% 30.01 in 10.0 mi North 6.9 mph - N/A   Overcast
1:13 PM 62.6 °F 57.2 °F 82% 30.00 in 10.0 mi North 8.1 mph - 0.01 in   Overcast
1:34 PM 62.6 °F 57.2 °F 82% 30.00 in 10.0 mi North 8.1 mph - 0.01 in   Mostly Cloudy
1:54 PM 62.6 °F 57.2 °F 82% 29.99 in 10.0 mi North 9.2 mph - 0.01 in   Mostly Cloudy
2:13 PM 64.4 °F 59.0 °F 83% 29.98 in 10.0 mi North 9.2 mph - N/A   Overcast
2:34 PM 66.2 °F 59.0 °F 78% 29.99 in 10.0 mi NNE 6.9 mph - N/A   Mostly Cloudy
2:54 PM 66.2 °F 60.8 °F 83% 29.99 in 10.0 mi NNE 6.9 mph - N/A   Scattered Clouds
3:13 PM 66.2 °F 59.0 °F 78% 30.02 in 10.0 mi North 10.4 mph - N/A   Scattered Clouds
3:33 PM 64.4 °F 57.2 °F 77% 30.02 in 10.0 mi North 9.2 mph - N/A   Mostly Cloudy
3:54 PM 64.4 °F 57.2 °F 77% 30.02 in 10.0 mi NNE 11.5 mph - N/A   Mostly Cloudy
4:13 PM 62.6 °F 57.2 °F 82% 30.01 in 7.0 mi NNE 10.4 mph - N/A   Overcast
4:33 PM 62.6 °F 57.2 °F 82% 30.01 in 10.0 mi NNE 10.4 mph - N/A   Overcast
4:54 PM 60.8 °F 55.4 °F 82% 30.03 in 10.0 mi North 9.2 mph - N/A   Overcast
5:13 PM 60.8 °F 55.4 °F 82% 30.03 in 7.0 mi North 9.2 mph - N/A   Overcast
5:34 PM 60.8 °F 55.4 °F 82% 30.04 in 7.0 mi North 5.8 mph - N/A   Overcast
5:54 PM 60.8 °F 53.6 °F 77% 30.05 in 10.0 mi North 9.2 mph - N/A   Overcast
6:14 PM 60.8 °F 53.6 °F 77% 30.07 in 7.0 mi NNW 6.9 mph - N/A   Overcast
6:33 PM 59.0 °F 53.6 °F 82% 30.07 in 7.0 mi North 8.1 mph - N/A   Overcast
6:54 PM 59.0 °F 53.6 °F 82% 30.09 in 7.0 mi North 8.1 mph - N/A   Overcast
7:14 PM 57.2 °F 53.6 °F 88% 30.09 in 5.0 mi North 9.2 mph - N/A   Overcast
7:33 PM 57.2 °F 53.6 °F 88% 30.09 in 5.0 mi North 6.9 mph - N/A   Overcast
7:53 PM 57.2 °F 53.6 °F 88% 30.10 in 7.0 mi North 8.1 mph - N/A   Overcast
8:13 PM 57.2 °F 53.6 °F 88% 30.10 in 7.0 mi NNW 9.2 mph - N/A   Overcast
8:34 PM 57.2 °F 53.6 °F 88% 30.11 in 7.0 mi North 8.1 mph - N/A   Mostly Cloudy
8:54 PM 55.4 °F 53.6 °F 94% 30.10 in 7.0 mi North 8.1 mph - N/A   Mostly Cloudy
9:14 PM 55.4 °F 53.6 °F 94% 30.10 in 10.0 mi North 6.9 mph - N/A   Overcast
9:33 PM 55.4 °F 53.6 °F 94% 30.11 in 10.0 mi NNE 3.5 mph - N/A   Overcast
9:54 PM 55.4 °F 53.6 °F 94% 30.11 in 10.0 mi Calm Calm - N/A   Overcast
10:13 PM 55.4 °F 53.6 °F 94% 30.12 in 10.0 mi North 6.9 mph - N/A   Overcast
10:34 PM 55.4 °F 53.6 °F 94% 30.10 in 10.0 mi North 4.6 mph - N/A   Overcast
10:54 PM 55.4 °F 53.6 °F 94% 30.11 in 10.0 mi NNE 3.5 mph - N/A   Overcast
11:13 PM 55.4 °F 53.6 °F 94% 30.12 in 10.0 mi Calm Calm - N/A   Overcast
11:33 PM 55.4 °F 53.6 °F 94% 30.11 in 10.0 mi North 5.8 mph - N/A   Mostly Cloudy
11:53 PM 55.4 °F 51.8 °F 88% 30.09 in 10.0 mi North 5.8 mph - N/A   Scattered Clouds